Location: Hartford
(41.7640°N, 72.6860°W)
Time: 05:46:51
(UTC-04:00)

Amateur Radio Satellites - All Passes

Search period start: 20 October 2014 05:16
Search period end: 21 October 2014 05:16
Location: Hartford, 41.7640°N, 72.6860°W

Satellite Date Start Highest point End Downlink Frequencies (MHz)
Time Altitude Azimuth
Uosat F 20 Oct 05:17:23 05:22:27 71° 103° (ESE) 05:27:29 435.120 FM
STRAND 1 20 Oct 05:43:58 05:47:51 22° 64° (ENE) 05:51:45 ?
OPAL 20 Oct 05:46:03 05:50:50 37° 260° (W) 05:55:35 ?
JAS-2 20 Oct 06:14:04 06:21:41 65° 101° (E) 06:29:28 435.800 - 435.900 CW/SSB, 435.910 FM
Sapphire 20 Oct 06:15:45 06:20:45 38° 308° (NW) 06:25:48 437.095 MHz 1200 baud AX-25 AFSK
AO-7 20 Oct 06:31:50 06:39:32 44° 298° (WNW) 06:47:14 29.400 - 29.500 MHz
PCSat 20 Oct 06:39:50 06:44:14 25° 313° (NW) 06:48:39 145.825 MHz
Hamsat 20 Oct 06:45:55 06:50:08 87° 102° (ESE) 06:54:19 145.90 MHz
Uosat F 20 Oct 06:57:47 07:00:38 15° 300° (WNW) 07:03:29 435.120 FM
SO-67 20 Oct 06:58:39 07:00:13 13° 92° (E) 07:01:47 435.3500 MHz FM
STRAND 1 20 Oct 07:21:47 07:26:42 47° 261° (W) 07:31:41 ?
RS-15 20 Oct 07:27:03 07:38:02 59° 49° (NE) 07:49:25 29.354 - 29.394 USB, Beacon 29.352 USB
Saudisat 1A 20 Oct 07:54:12 07:56:40 15° 109° (ESE) 07:59:09 436.775 MHz
JAS-2 20 Oct 07:59:52 08:06:10 30° 298° (WNW) 08:12:39 435.800 - 435.900 CW/SSB, 435.910 FM
AO-7 20 Oct 08:29:46 08:30:09 10° 321° (NW) 08:30:32 29.400 - 29.500 MHz
SO-67 20 Oct 08:30:10 08:33:21 35° 287° (WNW) 08:36:30 435.3500 MHz FM
HO-68 20 Oct 09:05:40 09:12:02 33° 96° (E) 09:18:21 435.675 MHz FM
Saudisat 1A 20 Oct 09:31:26 09:35:45 59° 306° (NW) 09:40:07 436.775 MHz
UKube-1 20 Oct 09:33:08 09:35:55 16° 93° (E) 09:38:41 145.840 MHz, 145.915 MHz
RS-15 20 Oct 09:39:50 09:50:06 44° 251° (WSW) 10:00:47 29.354 - 29.394 USB, Beacon 29.352 USB
FUNcube-1 20 Oct 10:04:30 10:06:35 13° 90° (E) 10:08:39 145.950 - 145.970 MHz USB
Oscar 11 20 Oct 10:18:18 10:22:28 46° 99° (E) 10:26:36 145.825 FM, Beacon 2401.500 USB
MaSat-1 20 Oct 10:31:56 10:34:41 84° 64° (ENE) 10:37:09 437.345 MHz
HO-68 20 Oct 10:53:03 10:59:54 49° 294° (WNW) 11:06:44 435.675 MHz FM
ZACube-1 20 Oct 10:53:04 10:57:15 47° 99° (E) 11:01:18 437.345 MHz
UKube-1 20 Oct 11:08:09 11:12:20 45° 289° (WNW) 11:16:29 145.840 MHz, 145.915 MHz
Saudisat 1A 20 Oct 11:15:20 11:16:16 11° 326° (NNW) 11:17:11 436.775 MHz
PANSAT 20 Oct 11:35:50 11:37:01 11° 180° (S) 11:38:12 not established
FUNcube-1 20 Oct 11:39:07 11:43:20 52° 287° (WNW) 11:47:25 145.950 - 145.970 MHz USB
KITSAT 1 20 Oct 11:40:41 11:45:28 17° 101° (E) 11:50:15 435.175 FM
Oscar 11 20 Oct 11:55:34 11:58:17 17° 296° (WNW) 12:00:58 145.825 FM, Beacon 2401.500 USB
Oscar 19 20 Oct 11:55:51 11:57:24 11° 58° (ENE) 11:58:57 437.125 CW, 437.150 USB
PCSat 20 Oct 12:02:33 12:03:18 10° 33° (NNE) 12:04:02 145.825 MHz
ZACube-1 20 Oct 12:30:36 12:33:15 16° 296° (WNW) 12:35:52 437.345 MHz
Oscar 16 20 Oct 12:37:26 12:41:46 28° 66° (ENE) 12:46:07 437.025 USB, Beacon 2401.1428
Uribyol 2 20 Oct 12:49:19 12:52:31 17° 60° (ENE) 12:55:42 436.500 FM
ITAMSAT 1 20 Oct 12:53:56 12:57:13 17° 61° (ENE) 13:00:30 435.822 SSB
JAS-1B 20 Oct 12:55:10 13:00:35 34° 67° (ENE) 13:05:39 435.800 - 435.900 CW/SSB
AO-Echo 20 Oct 13:12:48 13:16:54 28° 66° (ENE) 13:21:07 ?
Sapphire 20 Oct 13:19:57 13:24:45 30° 49° (NE) 13:29:30 437.095 MHz 1200 baud AX-25 AFSK
Oscar 19 20 Oct 13:30:45 13:35:55 83° 75° (ENE) 13:41:06 437.125 CW, 437.150 USB
KITSAT 1 20 Oct 13:31:36 13:39:41 86° 119° (ESE) 13:47:48 435.175 FM
AO-27 20 Oct 13:36:18 13:41:07 40° 69° (ENE) 13:45:59 436.795 MHz FM
PCSat 20 Oct 13:42:51 13:48:07 47° 55° (NE) 13:53:20 145.825 MHz
AO-7 20 Oct 13:51:00 13:54:58 14° 45° (NE) 13:58:55 29.400 - 29.500 MHz
SO-50 20 Oct 14:02:59 14:07:20 52° 118° (ESE) 14:11:49 436.795 FM
Oscar 16 20 Oct 14:16:13 14:20:58 37° 263° (W) 14:25:44 437.025 USB, Beacon 2401.1428
Gurwin Techsat 1B 20 Oct 14:21:49 14:26:57 54° 71° (ENE) 14:32:08 435.225 FM
Uribyol 2 20 Oct 14:26:13 14:31:24 69° 258° (WSW) 14:36:38 436.500 FM
ITAMSAT 1 20 Oct 14:30:59 14:36:09 66° 258° (WSW) 14:41:22 435.822 SSB
TMSAT-1 20 Oct 14:36:18 14:41:27 54° 71° (ENE) 14:46:37 436.925 FM
JAS-1B 20 Oct 14:45:48 14:51:18 32° 263° (W) 14:56:24 435.800 - 435.900 CW/SSB
ISS 20 Oct 14:51:14 14:54:33 80° 143° (SE) 14:57:54 145.800 FM
AO-Echo 20 Oct 14:51:15 14:55:34 33° 264° (W) 15:00:02 ?
Uosat F 20 Oct 14:55:32 14:57:49 13° 59° (ENE) 15:00:06 435.120 FM
Sapphire 20 Oct 15:03:11 15:08:17 42° 248° (WSW) 15:13:21 437.095 MHz 1200 baud AX-25 AFSK
Oscar 19 20 Oct 15:14:13 15:15:52 11° 271° (W) 15:17:32 437.125 CW, 437.150 USB
AO-27 20 Oct 15:16:30 15:20:45 25° 266° (W) 15:25:02 436.795 MHz FM
PCSat 20 Oct 15:26:52 15:31:13 25° 252° (WSW) 15:35:33 145.825 MHz
KITSAT 1 20 Oct 15:29:26 15:36:05 27° 322° (NW) 15:42:46 435.175 FM
AO-7 20 Oct 15:38:00 15:46:04 61° 66° (ENE) 15:54:10 29.400 - 29.500 MHz
SO-50 20 Oct 15:44:40 15:48:12 22° 318° (NW) 15:51:49 436.795 FM
UOSAT-12 20 Oct 15:53:05 15:57:38 62° 119° (ESE) 16:02:18 437.025 FM, 437.400 FM
Gurwin Techsat 1B 20 Oct 16:03:30 16:07:15 19° 268° (W) 16:11:00 435.225 FM
TMSAT-1 20 Oct 16:17:58 16:21:41 19° 268° (W) 16:25:26 436.925 FM
Saudisat 1A 20 Oct 16:19:12 16:22:11 17° 41° (NE) 16:25:08 436.775 MHz
Oscar 10/S400 20 Oct 16:26:56 16:45:11 54° 166° (SSE) 17:43:09 145.825 - 145.975 CW/USB, Beacon 145.810 USB
JAS-2 20 Oct 16:28:01 16:32:45 26° 61° (ENE) 16:37:57 435.800 - 435.900 CW/SSB, 435.910 FM
ISS 20 Oct 16:28:53 16:31:35 22° 342° (NNW) 16:34:18 145.800 FM
Uosat F 20 Oct 16:30:53 16:35:54 82° 256° (WSW) 16:40:58 435.120 FM
KITSAT 1 20 Oct 17:32:04 17:34:55 12° 351° (N) 17:37:46 435.175 FM
AO-7 20 Oct 17:32:14 17:39:16 31° 264° (W) 17:46:21 29.400 - 29.500 MHz
UOSAT-12 20 Oct 17:34:42 17:38:12 20° 319° (NW) 17:41:44 437.025 FM, 437.400 FM
Hamsat 20 Oct 17:39:12 17:43:22 63° 75° (ENE) 17:47:33 145.90 MHz
OPAL 20 Oct 17:55:17 18:00:11 54° 103° (ESE) 18:05:00 ?
Saudisat 1A 20 Oct 17:57:48 18:02:13 69° 239° (WSW) 18:06:35 436.775 MHz
ISS 20 Oct 18:07:08 18:09:11 15° 2° (N) 18:11:14 145.800 FM
JAS-2 20 Oct 18:11:53 18:17:23 50° 262° (W) 18:23:38 435.800 - 435.900 CW/SSB, 435.910 FM
SO-67 20 Oct 19:02:28 19:05:52 71° 77° (ENE) 19:09:19 435.3500 MHz FM
Hamsat 20 Oct 19:18:36 19:19:43 11° 271° (W) 19:20:51 145.90 MHz
KITSAT 1 20 Oct 19:30:02 19:34:36 16° 22° (NNE) 19:39:08 435.175 FM
STRAND 1 20 Oct 19:31:53 19:36:59 57° 101° (E) 19:42:02 ?
OPAL 20 Oct 19:35:11 19:38:38 19° 300° (WNW) 19:42:04 ?
HO-68 20 Oct 19:35:17 19:41:01 27° 59° (ENE) 19:46:45 435.675 MHz FM
ISS 20 Oct 19:43:47 19:46:43 27° 22° (NNE) 19:49:39 145.800 FM
UKube-1 20 Oct 20:29:22 20:32:01 16° 63° (ENE) 20:34:41 145.840 MHz, 145.915 MHz
SO-50 20 Oct 20:55:48 20:57:13 11° 32° (NNE) 20:58:38 436.795 FM
FUNcube-1 20 Oct 21:01:25 21:03:43 14° 63° (ENE) 21:06:01 145.950 - 145.970 MHz USB
STRAND 1 20 Oct 21:12:10 21:15:42 19° 298° (WNW) 21:19:14 ?
Oscar 11 20 Oct 21:13:33 21:17:33 38° 71° (ENE) 21:21:34 145.825 FM, Beacon 2401.500 USB
ISS 20 Oct 21:20:19 21:23:35 50° 220° (SW) 21:26:49 145.800 FM
HO-68 20 Oct 21:21:06 21:28:11 64° 257° (WSW) 21:35:19 435.675 MHz FM
KITSAT 1 20 Oct 21:24:44 21:32:26 45° 49° (NE) 21:40:04 435.175 FM
ZACube-1 20 Oct 21:49:22 21:53:41 41° 71° (ENE) 21:57:59 437.345 MHz
RS-15 20 Oct 21:52:43 22:01:56 32° 105° (ESE) 22:11:02 29.354 - 29.394 USB, Beacon 29.352 USB
AO-40 20 Oct 21:59:00 23:39:32 23° 223° (SW) 02:46:07 Beacon 2401.320
UKube-1 20 Oct 22:03:35 22:07:48 50° 260° (W) 22:12:03 145.840 MHz, 145.915 MHz
SO-50 20 Oct 22:34:07 22:38:51 53° 53° (NE) 22:43:38 436.795 FM
FUNcube-1 20 Oct 22:34:58 22:39:33 67° 259° (W) 22:44:07 145.950 - 145.970 MHz USB
UOSAT-12 20 Oct 22:44:24 22:45:59 11° 33° (NNE) 22:47:33 437.025 FM, 437.400 FM
Oscar 11 20 Oct 22:50:46 22:53:52 19° 267° (W) 22:56:58 145.825 FM, Beacon 2401.500 USB
KITSAT 1 20 Oct 23:20:16 23:27:50 46° 249° (WSW) 23:35:22 435.175 FM
ZACube-1 20 Oct 23:26:50 23:30:13 20° 267° (W) 23:33:35 437.345 MHz
RS-15 21 Oct 00:02:23 00:13:21 71° 307° (NW) 00:24:19 29.354 - 29.394 USB, Beacon 29.352 USB
MaSat-1 21 Oct 00:09:53 00:13:26 25° 109° (ESE) 00:16:45 437.345 MHz
SO-50 21 Oct 00:15:33 00:19:04 20° 249° (WSW) 00:22:35 436.795 FM
UOSAT-12 21 Oct 00:22:30 00:27:10 57° 53° (NE) 00:31:45 437.025 FM, 437.400 FM
Oscar 19 21 Oct 01:42:36 01:47:00 28° 95° (E) 01:51:22 437.125 CW, 437.150 USB
MaSat-1 21 Oct 01:45:26 01:49:08 29° 302° (WNW) 01:52:33 437.345 MHz
AO-27 21 Oct 01:50:37 01:53:15 14° 90° (E) 01:55:51 436.795 MHz FM
UOSAT-12 21 Oct 02:03:48 02:06:51 17° 251° (WSW) 02:09:51 437.025 FM, 437.400 FM
RS-15 21 Oct 02:19:13 02:28:05 27° 336° (NNW) 02:37:04 29.354 - 29.394 USB, Beacon 29.352 USB
JAS-1B 21 Oct 02:26:34 02:32:56 60° 102° (ESE) 02:40:30 435.800 - 435.900 CW/SSB
Oscar 16 21 Oct 02:27:05 02:32:15 77° 103° (ESE) 02:37:21 437.025 USB, Beacon 2401.1428
Gurwin Techsat 1B 21 Oct 02:38:32 02:42:31 21° 93° (E) 02:46:28 435.225 FM
Uribyol 2 21 Oct 02:38:52 02:43:49 42° 98° (E) 02:48:42 436.500 FM
ITAMSAT 1 21 Oct 02:43:43 02:48:43 44° 99° (E) 02:53:40 435.822 SSB
TMSAT-1 21 Oct 02:52:40 02:56:38 21° 93° (E) 03:00:34 436.925 FM
AO-Echo 21 Oct 02:57:08 03:02:27 78° 103° (ESE) 03:07:47 ?
Oscar 19 21 Oct 03:21:45 03:26:21 35° 292° (WNW) 03:30:56 437.125 CW, 437.150 USB
AO-27 21 Oct 03:28:03 03:33:17 73° 286° (WNW) 03:38:29 436.795 MHz FM
OPAL 21 Oct 03:34:36 03:37:17 14° 57° (ENE) 03:39:58 ?
AO-7 21 Oct 03:40:56 03:46:08 18° 90° (E) 03:51:19 29.400 - 29.500 MHz
Sapphire 21 Oct 04:02:54 04:07:07 24° 107° (ESE) 04:11:22 437.095 MHz 1200 baud AX-25 AFSK
Oscar 16 21 Oct 04:08:17 04:10:56 14° 300° (WNW) 04:13:35 437.025 USB, Beacon 2401.1428
Gurwin Techsat 1B 21 Oct 04:17:37 04:22:44 50° 289° (WNW) 04:27:50 435.225 FM
JAS-1B 21 Oct 04:18:17 04:23:18 25° 296° (WNW) 04:28:56 435.800 - 435.900 CW/SSB
Uribyol 2 21 Oct 04:18:50 04:23:02 25° 295° (WNW) 04:27:14 436.500 FM
ITAMSAT 1 21 Oct 04:23:46 04:27:56 25° 296° (WNW) 04:32:04 435.822 SSB
PCSat 21 Oct 04:24:58 04:29:59 40° 112° (ESE) 04:35:01 145.825 MHz
TMSAT-1 21 Oct 04:31:41 04:36:48 50° 289° (WNW) 04:41:53 436.925 FM
RS-15 21 Oct 04:37:29 04:45:37 22° 12° (NNE) 04:53:53 29.354 - 29.394 USB, Beacon 29.352 USB
AO-Echo 21 Oct 04:37:38 04:40:33 15° 300° (WNW) 04:43:29 ?
Uosat F 21 Oct 04:38:44 04:43:09 30° 96° (E) 04:47:33 435.120 FM
AO-27 21 Oct 05:11:39 05:11:51 10° 304° (NW) 05:12:02 436.795 MHz FM
STRAND 1 21 Oct 05:13:09 05:14:47 12° 57° (ENE) 05:16:25 ?
